| time (UTC) | temp C | wind direction | speed KPH | gust KPH | rain 1hr cm | rain 24hr cm | rain mn cm | humidity % | barometer mb |
| 20260503051105 | 1 | 340 | 0.0 | 0.0 | 0.00 | 0.00 | 0.00 | 78 | 1012.2 |
| 20260503050605 | 1 | 340 | 0.0 | 1.6 | 0.00 | 0.00 | 0.00 | 78 | 1012.2 |
| 20260503045604 | 2 | 340 | 0.0 | 3.2 | 0.00 | 0.00 | 0.00 | 78 | 1012.7 |
| 20260503044604 | 2 | 340 | 0.0 | 8.0 | 0.00 | 0.00 | 0.00 | 77 | 1012.7 |
| 20260503044104 | 2 | 334 | 1.6 | 8.0 | 0.00 | 0.00 | 0.00 | 77 | 1012.7 |
| 20260503043604 | 2 | 334 | 0.0 | 8.0 | 0.00 | 0.00 | 0.00 | 77 | 1012.7 |
| 20260503043104 | 2 | 328 | 0.0 | 8.0 | 0.00 | 0.00 | 0.00 | 77 | 1012.7 |
| 20260503042605 | 2 | 328 | 1.6 | 8.0 | 0.00 | 0.00 | 0.00 | 77 | 1012.7 |
| 20260503042104 | 2 | 327 | 1.6 | 4.8 | 0.00 | 0.00 | 0.00 | 77 | 1012.7 |
| 20260503041605 | 2 | 327 | 0.0 | 8.0 | 0.00 | 0.00 | 0.00 | 77 | 1012.7 |
| 20260503041106 | 2 | 327 | 1.6 | 8.0 | 0.00 | 0.00 | 0.00 | 77 | 1012.7 |
| 20260503035104 | 2 | 329 | 3.2 | 12.9 | 0.00 | 0.00 | 0.00 | 77 | 1012.7 |
| 20260503034105 | 2 | 335 | 1.6 | 4.8 | 0.00 | 0.00 | 0.00 | 76 | 1012.7 |
| 20260503033605 | 2 | 342 | 3.2 | 4.8 | 0.00 | 0.00 | 0.00 | 76 | 1012.7 |
| 20260503033105 | 2 | 341 | 1.6 | 4.8 | 0.00 | 0.00 | 0.00 | 76 | 1012.7 |
| 20260503032604 | 2 | 341 | 1.6 | 9.7 | 0.00 | 0.00 | 0.00 | 76 | 1012.7 |
| 20260503032104 | 2 | 341 | 4.8 | 9.7 | 0.00 | 0.00 | 0.00 | 76 | 1012.7 |
| 20260503031604 | 2 | 342 | 1.6 | 8.0 | 0.00 | 0.00 | 0.00 | 76 | 1012.7 |
| 20260503031105 | 2 | 342 | 0.0 | 8.0 | 0.00 | 0.00 | 0.00 | 75 | 1012.7 |
| 20260503030104 | 2 | 330 | 4.8 | 8.0 | 0.00 | 0.00 | 0.00 | 75 | 1012.7 |
| 20260503025104 | 3 | 318 | 1.6 | 9.7 | 0.00 | 0.00 | 0.00 | 75 | 1012.7 |
| 20260503024604 | 3 | 319 | 3.2 | 8.0 | 0.00 | 0.00 | 0.00 | 75 | 1012.7 |
| 20260503023604 | 3 | 335 | 1.6 | 9.7 | 0.00 | 0.00 | 0.00 | 74 | 1012.7 |
| 20260503023104 | 3 | 335 | 3.2 | 9.7 | 0.00 | 0.00 | 0.00 | 74 | 1012.7 |
| 20260503022604 | 3 | 337 | 1.6 | 4.8 | 0.00 | 0.00 | 0.00 | 74 | 1012.7 |
| 20260503022105 | 3 | 338 | 1.6 | 9.7 | 0.00 | 0.00 | 0.00 | 74 | 1012.7 |
| 20260503021605 | 3 | 336 | 1.6 | 12.9 | 0.00 | 0.03 | 0.00 | 74 | 1011.9 |
| 20260503021104 | 3 | 337 | 6.4 | 12.9 | 0.00 | 0.03 | 0.00 | 74 | 1011.9 |
| 20260503020605 | 3 | 343 | 4.8 | 9.7 | 0.00 | 0.03 | 0.00 | 74 | 1011.9 |
| 20260503015605 | 3 | 317 | 8.0 | 12.9 | 0.00 | 0.03 | 0.00 | 74 | 1011.9 |
| 20260503015105 | 3 | 338 | 3.2 | 12.9 | 0.00 | 0.03 | 0.00 | 74 | 1011.9 |
| 20260503014105 | 3 | 333 | 4.8 | 14.5 | 0.00 | 0.03 | 0.00 | 74 | 1011.9 |
| 20260503013605 | 3 | 347 | 1.6 | 14.5 | 0.00 | 0.03 | 0.00 | 74 | 1011.9 |
| 20260503012604 | 3 | 343 | 3.2 | 14.5 | 0.00 | 0.05 | 0.00 | 73 | 1011.9 |
| 20260503012105 | 3 | 347 | 4.8 | 16.1 | 0.00 | 0.05 | 0.00 | 73 | 1011.9 |
| 20260503011604 | 3 | 355 | 4.8 | 16.1 | 0.00 | 0.08 | 0.00 | 73 | 1011.9 |
| 20260503011105 | 3 | 357 | 8.0 | 19.3 | 0.00 | 0.10 | 0.00 | 73 | 1011.9 |
| 20260503010604 | 3 | 335 | 8.0 | 19.3 | 0.00 | 0.10 | 0.00 | 72 | 1011.9 |
| 20260503005604 | 4 | 7 | 3.2 | 14.5 | 0.00 | 0.13 | 0.00 | 72 | 1011.9 |
| 20260503004605 | 4 | 346 | 4.8 | 9.7 | 0.00 | 0.15 | 0.00 | 71 | 1011.9 |
| 20260503003605 | 4 | 356 | 3.2 | 14.5 | 0.00 | 0.15 | 0.00 | 70 | 1011.9 |
| 20260503003104 | 4 | 332 | 6.4 | 19.3 | 0.00 | 0.18 | 0.00 | 70 | 1011.9 |
| 20260503002105 | 5 | 339 | 6.4 | 19.3 | 0.00 | 0.18 | 0.00 | 69 | 1011.9 |
| 20260503001605 | 5 | 345 | 4.8 | 19.3 | 0.00 | 0.18 | 0.00 | 68 | 1011.9 |
| 20260503001105 | 5 | 353 | 4.8 | 19.3 | 0.00 | 0.20 | 0.00 | 67 | 1011.9 |
| 20260503000105 | 5 | 359 | 4.8 | 14.5 | 0.00 | 0.20 | 0.00 | 66 | 1011.9 |
| 20260502235604 | 5 | 8 | 8.0 | 14.5 | 0.00 | 0.23 | 0.00 | 65 | 1011.9 |
| 20260502235104 | 5 | 5 | 6.4 | 19.3 | 0.00 | 0.23 | 0.00 | 64 | 1011.8 |
| 20260502234604 | 5 | 356 | 6.4 | 19.3 | 0.00 | 0.23 | 0.00 | 63 | 1011.8 |
| 20260502234105 | 5 | 341 | 8.0 | 16.1 | 0.00 | 0.23 | 0.00 | 62 | 1011.8 |
| 20260502232605 | 5 | 349 | 3.2 | 14.5 | 0.00 | 0.23 | 0.00 | 61 | 1011.8 |
| 20260502232105 | 6 | 334 | 8.0 | 19.3 | 0.00 | 0.25 | 0.00 | 60 | 1011.1 |
| 20260502231604 | 6 | 333 | 4.8 | 19.3 | 0.00 | 0.25 | 0.00 | 60 | 1011.1 |
| 20260502231104 | 6 | 355 | 8.0 | 16.1 | 0.00 | 0.25 | 0.00 | 60 | 1011.1 |
| 20260502230605 | 6 | 343 | 4.8 | 16.1 | 0.00 | 0.28 | 0.00 | 60 | 1011.1 |
| 20260502230104 | 6 | 2 | 3.2 | 16.1 | 0.00 | 0.28 | 0.00 | 59 | 1011.1 |
| 20260502225104 | 6 | 328 | 4.8 | 19.3 | 0.00 | 0.30 | 0.00 | 58 | 1011.1 |
| 20260502224605 | 6 | 344 | 9.7 | 16.1 | 0.00 | 0.30 | 0.00 | 58 | 1011.1 |
| 20260502224105 | 6 | 345 | 4.8 | 19.3 | 0.00 | 0.30 | 0.00 | 58 | 1011.1 |
| 20260502223605 | 6 | 358 | 6.4 | 20.9 | 0.00 | 0.30 | 0.00 | 57 | 1011.1 |
| 20260502223104 | 6 | 348 | 6.4 | 20.9 | 0.00 | 0.30 | 0.00 | 56 | 1011.1 |
| 20260502222605 | 6 | 351 | 8.0 | 20.9 | 0.00 | 0.33 | 0.00 | 57 | 1011.1 |
| 20260502222104 | 6 | 334 | 9.7 | 19.3 | 0.00 | 0.36 | 0.00 | 54 | 1011.1 |
| 20260502221604 | 6 | 329 | 8.0 | 19.3 | 0.00 | 0.36 | 0.00 | 55 | 1011.1 |
| 20260502221105 | 6 | 338 | 4.8 | 16.1 | 0.00 | 0.36 | 0.00 | 55 | 1011.1 |
| 20260502220604 | 6 | 301 | 6.4 | 19.3 | 0.00 | 0.36 | 0.00 | 56 | 1011.1 |
| 20260502215604 | 6 | 324 | 1.6 | 14.5 | 0.00 | 0.38 | 0.00 | 56 | 1011.1 |
| 20260502215104 | 6 | 331 | 8.0 | 14.5 | 0.00 | 0.38 | 0.00 | 55 | 1011.1 |
| 20260502214605 | 6 | 323 | 8.0 | 14.5 | 0.00 | 0.38 | 0.00 | 56 | 1011.1 |
| 20260502214105 | 6 | 338 | 3.2 | 16.1 | 0.00 | 0.41 | 0.00 | 57 | 1011.1 |
| 20260502213604 | 6 | 9 | 4.8 | 16.1 | 0.00 | 0.41 | 0.00 | 55 | 1011.1 |
| 20260502213104 | 6 | 318 | 4.8 | 19.3 | 0.00 | 0.41 | 0.00 | 55 | 1011.1 |
| 20260502212605 | 7 | 341 | 8.0 | 19.3 | 0.00 | 0.41 | 0.00 | 55 | 1011.1 |
| 20260502211604 | 7 | 331 | 4.8 | 11.3 | 0.00 | 0.41 | 0.00 | 55 | 1011.1 |
| 20260502211104 | 7 | 327 | 3.2 | 11.3 | 0.00 | 0.41 | 0.00 | 55 | 1011.1 |
| 20260502210604 | 7 | 340 | 0.0 | 8.0 | 0.00 | 0.41 | 0.00 | 56 | 1011.1 |
| 20260502210104 | 7 | 340 | 0.0 | 12.9 | 0.00 | 0.41 | 0.00 | 54 | 1011.1 |
| 20260502205604 | 7 | 341 | 3.2 | 12.9 | 0.00 | 0.41 | 0.00 | 55 | 1011.1 |
| 20260502205104 | 7 | 323 | 1.6 | 8.0 | 0.00 | 0.41 | 0.00 | 56 | 1011.1 |
| 20260502204604 | 7 | 290 | 3.2 | 12.9 | 0.00 | 0.41 | 0.00 | 55 | 1011.1 |
| 20260502204105 | 7 | 334 | 1.6 | 14.5 | 0.00 | 0.41 | 0.00 | 55 | 1011.1 |
| 20260502203604 | 7 | 344 | 1.6 | 14.5 | 0.00 | 0.41 | 0.00 | 55 | 1011.8 |
| 20260502203104 | 7 | 345 | 3.2 | 16.1 | 0.00 | 0.41 | 0.00 | 55 | 1011.8 |
| 20260502202104 | 7 | 267 | 3.2 | 14.5 | 0.00 | 0.41 | 0.00 | 54 | 1011.8 |
| 20260502201604 | 7 | 344 | 4.8 | 11.3 | 0.00 | 0.41 | 0.00 | 54 | 1011.8 |
| 20260502201105 | 7 | 327 | 3.2 | 12.9 | 0.00 | 0.41 | 0.00 | 57 | 1011.8 |
| 20260502200605 | 7 | 349 | 6.4 | 12.9 | 0.00 | 0.41 | 0.00 | 56 | 1011.8 |
| 20260502195604 | 7 | 273 | 3.2 | 4.8 | 0.00 | 0.41 | 0.00 | 56 | 1011.8 |
| 20260502194605 | 7 | 357 | 1.6 | 16.1 | 0.00 | 0.41 | 0.00 | 56 | 1011.8 |
| 20260502194105 | 7 | 351 | 4.8 | 16.1 | 0.00 | 0.41 | 0.00 | 56 | 1011.8 |
| 20260502193604 | 7 | 43 | 3.2 | 14.5 | 0.00 | 0.41 | 0.00 | 56 | 1011.8 |
| 20260502193104 | 8 | 49 | 3.2 | 14.5 | 0.00 | 0.41 | 0.00 | 56 | 1011.8 |
| 20260502191604 | 8 | 300 | 3.2 | 14.5 | 0.00 | 0.41 | 0.00 | 53 | 1012.0 |
| 20260502191104 | 8 | 341 | 3.2 | 16.1 | 0.00 | 0.41 | 0.00 | 54 | 1012.0 |
| 20260502190604 | 8 | 323 | 8.0 | 19.3 | 0.00 | 0.41 | 0.00 | 52 | 1012.0 |
| 20260502190105 | 8 | 307 | 3.2 | 19.3 | 0.00 | 0.41 | 0.00 | 51 | 1012.0 |
| 20260502185604 | 8 | 318 | 8.0 | 19.3 | 0.00 | 0.41 | 0.00 | 51 | 1012.0 |
| 20260502185104 | 9 | 324 | 8.0 | 19.3 | 0.00 | 0.41 | 0.00 | 54 | 1012.0 |
| 20260502184604 | 8 | 2 | 3.2 | 16.1 | 0.00 | 0.41 | 0.00 | 54 | 1012.0 |
| 20260502184104 | 8 | 306 | 3.2 | 12.9 | 0.00 | 0.41 | 0.00 | 52 | 1012.0 |
| 20260502183104 | 8 | 229 | 3.2 | 11.3 | 0.00 | 0.41 | 0.00 | 54 | 1012.0 |
| 20260502182605 | 8 | 199 | 3.2 | 9.7 | 0.00 | 0.41 | 0.00 | 53 | 1012.0 |
| 20260502182104 | 8 | 344 | 0.0 | 9.7 | 0.00 | 0.41 | 0.00 | 53 | 1012.0 |
| 20260502181604 | 8 | 344 | 4.8 | 20.9 | 0.00 | 0.41 | 0.00 | 56 | 1012.0 |
| 20260502181105 | 8 | 318 | 0.0 | 20.9 | 0.00 | 0.41 | 0.00 | 54 | 1012.0 |
| 20260502180605 | 8 | 354 | 3.2 | 19.3 | 0.00 | 0.41 | 0.00 | 54 | 1012.0 |
| 20260502180104 | 7 | 11 | 1.6 | 14.5 | 0.00 | 0.41 | 0.00 | 55 | 1012.0 |
| 20260502170104 | 7 | 348 | 8.0 | 19.3 | 0.00 | 0.41 | 0.00 | 54 | 1012.2 |
| 20260502164105 | 7 | 296 | 8.0 | 16.1 | 0.00 | 0.41 | 0.00 | 52 | 1012.2 |
| 20260502163604 | 7 | 300 | 3.2 | 19.3 | 0.00 | 0.41 | 0.00 | 55 | 1012.5 |
| 20260502163104 | 7 | 3 | 8.0 | 19.3 | 0.00 | 0.41 | 0.00 | 52 | 1012.5 |
| 20260502162105 | 7 | 347 | 8.0 | 19.3 | 0.00 | 0.41 | 0.00 | 53 | 1012.5 |
| 20260502161604 | 7 | 282 | 1.6 | 12.9 | 0.00 | 0.41 | 0.00 | 55 | 1012.5 |
| 20260502161104 | 7 | 317 | 3.2 | 12.9 | 0.00 | 0.41 | 0.00 | 52 | 1012.5 |
| 20260502160604 | 7 | 256 | 1.6 | 8.0 | 0.00 | 0.41 | 0.00 | 52 | 1012.5 |
| 20260502160104 | 8 | 246 | 4.8 | 22.5 | 0.00 | 0.41 | 0.00 | 52 | 1012.5 |
| 20260502152104 | 7 | 0 | 6.4 | 20.9 | 0.00 | 0.41 | 0.00 | 54 | 1014.5 |
| 20260502151105 | 7 | 307 | 4.8 | 22.5 | 0.00 | 0.41 | 0.00 | 51 | 1014.4 |
| 20260502150604 | 7 | 16 | 8.0 | 22.5 | 0.00 | 0.41 | 0.00 | 51 | 1014.3 |
| 20260502150104 | 7 | 289 | 9.7 | 22.5 | 0.00 | 0.41 | 0.00 | 54 | 1014.4 |
| 20260502140104 | 6 | 301 | 8.0 | 22.5 | 0.00 | 0.41 | 0.00 | 58 | 1012.7 |
| 20260502130605 | 5 | 353 | 6.4 | 19.3 | 0.00 | 0.41 | 0.00 | 76 | 1011.8 |
| 20260502130105 | 5 | 323 | 8.0 | 19.3 | 0.00 | 0.41 | 0.00 | 77 | 1011.8 |
| 20260502123604 | 3 | 279 | 6.4 | 16.1 | 0.00 | 0.41 | 0.00 | 86 | 1011.8 |
| 20260502123105 | 3 | 324 | 3.2 | 16.1 | 0.00 | 0.41 | 0.00 | 89 | 1011.8 |
| 20260502122604 | 2 | 337 | 8.0 | 14.5 | 0.00 | 0.41 | 0.00 | 90 | 1011.8 |
| 20260502122104 | 2 | 319 | 4.8 | 19.3 | 0.00 | 0.41 | 0.00 | 91 | 1011.8 |
| 20260502121604 | 2 | 323 | 8.0 | 19.3 | 0.00 | 0.41 | 0.00 | 92 | 1011.8 |
| 20260502121105 | 2 | 331 | 8.0 | 22.5 | 0.00 | 0.41 | 0.00 | 92 | 1011.8 |
| 20260502120605 | 1 | 299 | 6.4 | 22.5 | 0.00 | 0.41 | 0.00 | 92 | 1011.8 |
| 20260502120105 | 1 | 324 | 3.2 | 19.3 | 0.00 | 0.41 | 0.00 | 92 | 1011.8 |
| 20260502115605 | 1 | 342 | 8.0 | 19.3 | 0.00 | 0.41 | 0.00 | 92 | 1011.8 |
| 20260502115105 | 1 | 311 | 6.4 | 19.3 | 0.00 | 0.41 | 0.00 | 93 | 1011.8 |
| 20260502114604 | 1 | 336 | 8.0 | 19.3 | 0.00 | 0.41 | 0.00 | 93 | 1011.8 |
| 20260502114105 | 1 | 346 | 6.4 | 19.3 | 0.00 | 0.41 | 0.00 | 93 | 1011.8 |
| 20260502113605 | 1 | 340 | 4.8 | 14.5 | 0.00 | 0.41 | 0.00 | 93 | 1011.8 |
| 20260502113104 | 1 | 327 | 4.8 | 14.5 | 0.00 | 0.41 | 0.00 | 93 | 1011.8 |
| 20260502112605 | 1 | 0 | 3.2 | 12.9 | 0.00 | 0.41 | 0.00 | 93 | 1011.8 |
| 20260502111605 | 1 | 324 | 0.0 | 12.9 | 0.00 | 0.41 | 0.00 | 93 | 1011.8 |
| 20260502111105 | 1 | 313 | 3.2 | 12.9 | 0.00 | 0.41 | 0.00 | 93 | 1011.8 |
| 20260502110605 | 1 | 325 | 1.6 | 14.5 | 0.00 | 0.41 | 0.00 | 93 | 1011.8 |
| 20260502110105 | 1 | 337 | 0.0 | 14.5 | 0.00 | 0.41 | 0.00 | 93 | 1011.8 |
| 20260502105605 | 1 | 343 | 3.2 | 4.8 | 0.00 | 0.41 | 0.00 | 92 | 1011.8 |
| 20260502104105 | 1 | 319 | 0.0 | 8.0 | 0.00 | 0.41 | 0.00 | 92 | 1011.8 |
| 20260502103604 | 1 | 319 | 1.6 | 8.0 | 0.00 | 0.41 | 0.00 | 92 | 1011.8 |
| 20260502103105 | 1 | 332 | 1.6 | 8.0 | 0.00 | 0.41 | 0.00 | 92 | 1011.8 |
| 20260502102605 | 1 | 323 | 3.2 | 8.0 | 0.00 | 0.41 | 0.00 | 92 | 1011.8 |
| 20260502102104 | 1 | 337 | 0.0 | 4.8 | 0.00 | 0.41 | 0.00 | 92 | 1011.8 |
| 20260502100607 | 2 | 336 | 0.0 | 1.6 | 0.00 | 0.41 | 0.00 | 92 | 1011.7 |
| 20260502100104 | 2 | 336 | 0.0 | 3.2 | 0.00 | 0.41 | 0.00 | 92 | 1011.8 |
| 20260502091105 | 2 | 329 | 3.2 | 8.0 | 0.00 | 0.41 | 0.00 | 93 | 1011.6 |
| 20260502090604 | 2 | 344 | 3.2 | 8.0 | 0.00 | 0.41 | 0.00 | 93 | 1011.6 |
| 20260502090105 | 3 | 306 | 1.6 | 12.9 | 0.00 | 0.41 | 0.00 | 93 | 1011.6 |
| 20260502080105 | 3 | 281 | 1.6 | 4.8 | 0.00 | 0.41 | 0.00 | 93 | 1011.2 |
| 20260502071105 | 3 | 275 | 1.6 | 11.3 | 0.00 | 0.41 | 0.00 | 93 | 1011.2 |
| 20260502070604 | 3 | 315 | 1.6 | 4.8 | 0.00 | 0.41 | 0.00 | 93 | 1011.2 |
| 20260502070105 | 3 | 315 | 0.0 | 4.8 | 0.00 | 0.41 | 0.00 | 93 | 1011.2 |
| 20260502065104 | 3 | 315 | 0.0 | 12.9 | 0.00 | 0.41 | 0.00 | 93 | 1011.2 |
| 20260502064604 | 3 | 315 | 0.0 | 12.9 | 0.00 | 0.41 | 0.00 | 93 | 1011.2 |
| 20260502064104 | 3 | 325 | 3.2 | 9.7 | 0.00 | 0.41 | 0.00 | 92 | 1011.2 |
| 20260502063605 | 3 | 339 | 3.2 | 8.0 | 0.00 | 0.41 | 0.00 | 92 | 1011.2 |
| 20260502063104 | 3 | 9 | 1.6 | 8.0 | 0.00 | 0.41 | 0.00 | 92 | 1011.2 |
| 20260502062105 | 3 | 343 | 3.2 | 9.7 | 0.00 | 0.41 | 0.00 | 92 | 1011.3 |
| 20260502061605 | 3 | 342 | 1.6 | 8.0 | 0.00 | 0.41 | 0.00 | 92 | 1011.3 |
| 20260502061105 | 3 | 342 | 1.6 | 8.0 | 0.00 | 0.41 | 0.00 | 92 | 1011.3 |
| 20260502060605 | 3 | 348 | 0.0 | 8.0 | 0.00 | 0.41 | 0.00 | 92 | 1011.3 |
| 20260502060105 | 3 | 348 | 1.6 | 8.0 | 0.00 | 0.41 | 0.00 | 92 | 1011.3 |
| 20260502055604 | 3 | 331 | 1.6 | 8.0 | 0.00 | 0.41 | 0.00 | 92 | 1011.3 |
| 20260502055104 | 3 | 330 | 3.2 | 8.0 | 0.00 | 0.41 | 0.00 | 92 | 1011.3 |
| 20260502054605 | 3 | 332 | 3.2 | 8.0 | 0.00 | 0.41 | 0.00 | 92 | 1011.3 |
| 20260502054105 | 3 | 335 | 1.6 | 9.7 | 0.00 | 0.41 | 0.00 | 92 | 1011.3 |
| 20260502053604 | 3 | 346 | 4.8 | 14.5 | 0.00 | 0.41 | 0.00 | 92 | 1011.3 |
| 20260502053104 | 3 | 327 | 4.8 | 14.5 | 0.00 | 0.41 | 0.00 | 92 | 1011.3 |
| 20260502052604 | 3 | 326 | 4.8 | 12.9 | 0.00 | 0.41 | 0.00 | 92 | 1011.3 |
| 20260502052104 | 3 | 330 | 4.8 | 12.9 | 0.00 | 0.41 | 0.00 | 92 | 1011.3 |
| 20260502051605 | 3 | 333 | 1.6 | 8.0 | 0.00 | 0.41 | 0.00 | 92 | 1011.3 |